This demonstration page uses our WeatherBlox Daily Observations layout. Learn more.

Left ArrowRight Arrow

44.8408, -93.29828

Hourly Observations for March 8, 2016

Temp ( °F °C ) Dew Point ( °F °C ) Humidity (%) Winds ( mph kmh ) Pressure ( in mb ) Visibility ( mi km ) Precip ( " mm )
12:53 am 00:53 Partly Cloudy 57 13.9 49 9.4 74 74 SSE 12 19 29.61 1003 10 16 0.00 0.00
1:53 am 01:53 Mostly Cloudy 56 13.3 49 9.4 77 77 SSE 14 22 29.61 1003 10 16 0.00 0.00
2:53 am 02:53 Cloudy 56 13.3 50 10 81 81 S 10 17 29.59 1002 10 16 0.00 0.00
3:53 am 03:53 Mostly Cloudy 54 12.2 49 9.4 83 83 SE 10 17 29.59 1002 10 16 0.00 0.00
4:11 am 04:11 Cloudy 55 12.8 50 10 83 83 SSE 12 19 29.59 1002 10 16 0.00 0.00
4:53 am 04:53 Cloudy 55 12.8 50 10 83 83 SSE 16 26 29.59 1002 10 16 0.00 0.00
5:53 am 05:53 Cloudy 56 13.3 51 10.6 84 84 SE 13 20 29.59 1002 10 16 0.00 0.00
6:15 am 06:15 Cloudy 56 13.3 51 10.6 84 84 SSE 13 20 29.59 1002 10 16 0.00 0.00
6:53 am 06:53 Cloudy 57 13.9 52 11.1 83 83 SSE 14 22 29.59 1002 9 14 0.00 0.00
7:31 am 07:31 Cloudy 58 14.4 53 11.7 84 84 SSE 14 22 29.59 1002 9 14 0.00 0.00
7:53 am 07:53 Cloudy 58 14.4 52 11.1 81 81 SSE 10 17 29.60 1002 9 14 0.00 0.00
8:45 am 08:45 Mostly Cloudy 59 15 53 11.7 81 81 SSE 10 17 29.59 1002 10 16 0.00 0.00
8:53 am 08:53 Mostly Cloudy 60 15.6 54 12.2 80 80 SSE 10 17 29.59 1002 10 16 0.00 0.00
9:12 am 09:12 Mostly Cloudy 63 17 54 12 73 73 S 12 19 29.59 1002 10 16 0.00 0.00
9:46 am 09:46 Cloudy 63 17 54 12 73 73 S 16 26 29.59 1002 10 16 0.00 0.00
9:53 am 09:53 Cloudy 62 16.7 54 12.2 75 75 S 16 26 29.57 1002 10 16 0.00 0.00
10:53 am 10:53 Cloudy 64 17.8 54 12.2 70 70 S 12 19 29.57 1001 10 16 0.00 0.00
11:12 am 11:12 Mostly Cloudy 65 18.3 54 12.2 68 68 S 18 30 29.56 1001 10 16 0.00 0.00
11:53 am 11:53 Mostly Cloudy 68 20 53 11.7 59 59 SSW 16 26 29.57 1001 10 16 0.00 0.00
12:53 pm 12:53 Mostly Cloudy 67 19.4 51 10.6 57 57 SSW 20 31 29.56 1001 10 16 0.00 0.00
1:53 pm 13:53 Partly Cloudy 70 21.1 48 8.9 46 46 SW 24 39 29.54 1000 10 16 0.00 0.00
2:53 pm 14:53 Mostly Sunny 68 20 44 6.7 42 42 SW 23 37 29.55 1001 10 16 0.00 0.00
3:53 pm 15:53 Mostly Sunny 62 16.7 45 7.2 54 54 SW 21 33 29.60 1002 10 16 0.00 0.00
4:53 pm 16:53 Cloudy 57 13.9 43 6.1 60 60 SW 21 33 29.64 1004 10 16 0.00 0.00
5:32 pm 17:32 Cloudy 52 11 43 6 72 72 WSW 23 37 29.65 1004 10 16 0.00 0.00
5:53 pm 17:53 Cloudy 51 10.6 41 5 69 69 WSW 21 33 29.67 1005 10 16 0.00 0.00
6:53 pm 18:53 Cloudy 48 8.9 39 3.9 71 71 WSW 20 31 29.69 1006 10 16 0.00 0.00
7:53 pm 19:53 Cloudy 46 7.8 36 2.2 68 68 WSW 18 30 29.71 1006 10 16 0.00 0.00
8:53 pm 20:53 Cloudy 44 6.7 36 2.2 73 73 WSW 18 30 29.75 1007 10 16 0.00 0.00
9:53 pm 21:53 Cloudy 42 5.6 35 1.7 76 76 SW 13 20 29.77 1008 10 16 0.00 0.00
10:53 pm 22:53 Cloudy 42 5.6 35 1.7 76 76 WSW 12 19 29.77 1008 10 16 0.00 0.00
11:53 pm 23:53 Cloudy 41 5 34 1.1 76 76 W 14 22 29.77 1008 10 16 0.00 0.00

Powered by AerisWeather